This is the latest recevied weather packets stored in our database for station/object W6DSP. If no packets are shown the sender has not sent any weather packets the latest 10 day(s).
| Time | Temp. | Humidity | Pressure | Rain* | Wind** | Luminosity | Snow |
|---|---|---|---|---|---|---|---|
| 1777825607 | 16.11° C | 45% | 1016.7 hPa | 0 mm | - | - | - |
| 1777824906 | 16.11° C | 44% | 1016.6 hPa | 0 mm | - | - | - |
| 1777824213 | 16.11° C | 48% | 1016.9 hPa | 0 mm | - | - | - |
| 1777823475 | 15.56° C | 46% | 1017.1 hPa | 0 mm | - | - | - |
| 1777822749 | 15.56° C | 47% | 1017.3 hPa | 0 mm | - | - | - |
| 1777822011 | 15° C | 49% | 1017.4 hPa | 0 mm | - | - | - |
| 1777821307 | 14.44° C | 48% | 1017.6 hPa | 0 mm | - | - | - |
| 1777820591 | 14.44° C | 51% | 1017.6 hPa | 0 mm | - | - | - |
| 1777819849 | 13.89° C | 49% | 1017.6 hPa | 0 mm | - | - | - |
| 1777819140 | 13.33° C | 52% | 1017.6 hPa | 0 mm | - | - | - |
| 1777818446 | 13.33° C | 51% | 1017.7 hPa | 0 mm | - | - | - |
| 1777817743 | 12.78° C | 56% | 1017.8 hPa | 0 mm | - | - | - |
| 1777817011 | 12.22° C | 54% | 1017.9 hPa | 0 mm | - | - | - |
| 1777816297 | 12.22° C | 54% | 1018 hPa | 0 mm | - | - | - |
| 1777815553 | 11.67° C | 55% | 1018.1 hPa | 0 mm | - | - | - |
| 1777814833 | 10.56° C | 59% | 1018.1 hPa | 0 mm | - | - | - |
| 1777814128 | 10° C | 63% | 1018 hPa | 0 mm | - | - | - |
| 1777813375 | 8.89° C | 62% | 1018.1 hPa | 0 mm | - | - | - |
| 1777812652 | 8.33° C | 63% | 1018 hPa | 0 mm | - | - | - |
| 1777811957 | 7.78° C | 65% | 1018.1 hPa | 0 mm | - | - | - |
| 1777811197 | 7.22° C | 67% | 1018.2 hPa | 0 mm | - | - | - |
| 1777810454 | 6.67° C | 68% | 1018.2 hPa | 0 mm | - | - | - |
| 1777809736 | 6.11° C | 71% | 1018.2 hPa | 0 mm | - | - | - |
| 1777809027 | 5° C | 75% | 1018.3 hPa | 0 mm | - | - | - |
| 1777808313 | 4.44° C | 77% | 1018 hPa | 0 mm | - | - | - |
* Rain latest hour (hover to see other rain measurements)
** Current wind speed in m/s (hover to see current wind gust speed)